Home   Weather   Stavern   Past weeks

Flag for Norway Past Weather in Stavern, Norway — Yesterday and Last 2 Weeks

Now
59 °F

Mostly cloudy.


Feels Like: 60 °F
Forecast: 57 / 66 °F
Wind: 3 mph from Southeast

Location: Torp

Current Time: Jul 27, 2017 at 4:49:41 am

Latest Report: Jul 27, 2017 at 4:20 am


Visibility: N/A

Pressure: 29.62 "Hg

Humidity: 100%

Dew Point: 59 °F

Location of StavernLocation

Past Weather in Stavern — Graph

°F

Stavern Temperature Yesterday

Maximum temperature yesterday: 68 °F (at 12:50 pm)
Minimum temperature yesterday: 59 °F (at 2:20 am)
Average temperature yesterday: 64 °F

High & Low Weather Summary for the Past Weeks

 TemperatureHumidityPressure
High75 °F (Jul 23, 1:50 pm)100% (Jul 12, 3:20 am)30.12 "Hg (Jul 12, 3:20 am)
Low46 °F (Jul 20, 4:50 am)35% (Jul 16, 6:20 pm)29.53 "Hg (Jul 12, 3:20 am)
Average62 °F70%29.91 "Hg
* Reported Jul 12 3:20 am — Jul 27 3:20 am, Stavern. Weather by CustomWeather, © 2017

Note: Actual official high and low records may vary slightly from our data, if they occured in-between our weather recording intervals... More about our weather records

Advertising

Stavern Weather History for the Previous 24 Hours

Scroll right to see more
 ConditionsComfort  
Time TempWeatherWind HumidityBarometerVisibility
3:20 am
Thu, Jul 27
59 °FPassing clouds.3 mph100%29.65 "HgN/A
2:50 am59 °FOvercast.3 mph100%29.65 "HgN/A
2:20 am61 °FPassing clouds.5 mph100%29.65 "HgN/A
1:50 am63 °FMostly cloudy.6 mph94%29.68 "HgN/A
1:20 am63 °FPassing clouds.5 mph100%29.68 "HgN/A
12:50 am63 °FOvercast.5 mph100%29.68 "HgN/A
12:20 am63 °FPassing clouds.3 mph100%29.68 "HgN/A
11:50 pm
Wed, Jul 26
63 °FPassing clouds.5 mph100%29.68 "HgN/A
11:20 pm63 °FPartly cloudy.3 mph94%29.68 "HgN/A
10:50 pm63 °FPartly cloudy.2 mph100%29.68 "HgN/A
10:20 pm63 °FPassing clouds.No wind94%29.68 "HgN/A
9:50 pm64 °FPartly sunny.2 mph78%29.68 "HgN/A
9:20 pm64 °FSunny.No wind78%29.68 "Hg10 mi
8:50 pm64 °FScattered clouds.3 mph78%29.68 "HgN/A
8:20 pm66 °FSunny.5 mph68%29.68 "Hg10 mi
7:50 pm68 °FOvercast.5 mph64%29.68 "HgN/A
7:20 pm68 °FBroken clouds.5 mph64%29.71 "HgN/A
6:50 pm68 °FPartly sunny.5 mph64%29.71 "HgN/A
6:20 pm68 °FPartly sunny.6 mph64%29.71 "HgN/A
5:50 pm68 °FPassing clouds.7 mph60%29.71 "HgN/A
5:20 pm68 °FMore clouds than sun.6 mph64%29.71 "HgN/A
4:50 pm68 °FMore clouds than sun.7 mph69%29.74 "HgN/A
4:20 pm66 °FSunny.7 mph68%29.74 "Hg10 mi
3:50 pm66 °FSunny.7 mph68%29.74 "Hg10 mi
3:20 pm66 °FPartly sunny.7 mph68%29.74 "HgN/A
2:50 pm66 °FBroken clouds.6 mph68%29.77 "HgN/A
2:20 pm66 °FBroken clouds.7 mph64%29.77 "HgN/A
1:50 pm66 °FBroken clouds.7 mph68%29.77 "HgN/A
1:20 pm66 °FBroken clouds.6 mph64%29.77 "HgN/A
12:50 pm68 °FBroken clouds.6 mph60%29.77 "HgN/A
12:20 pm66 °FBroken clouds.7 mph64%29.77 "HgN/A
11:50 am66 °FPassing clouds.8 mph68%29.80 "HgN/A
11:20 am64 °FPassing clouds.7 mph78%29.80 "HgN/A
10:50 am64 °FPassing clouds.7 mph83%29.80 "HgN/A
10:20 am63 °FPartly sunny.8 mph88%29.80 "HgN/A
9:20 am63 °FBroken clouds.7 mph88%29.80 "HgN/A
8:50 am63 °FPartly sunny.6 mph83%29.80 "HgN/A
8:20 am61 °FScattered showers. Broken clouds.6 mph88%29.80 "HgN/A
7:50 am61 °FScattered showers. Broken clouds.7 mph94%29.83 "HgN/A
7:20 am61 °FBroken clouds.7 mph94%29.83 "HgN/A
6:50 am59 °FSunny.5 mph100%29.83 "Hg10 mi
6:20 am59 °FSunny.6 mph100%29.83 "Hg10 mi
5:50 am59 °FSunny.6 mph100%29.83 "Hg10 mi
5:20 am59 °FCool.3 mph100%29.83 "HgN/A
4:50 am59 °FCool.3 mph100%29.83 "HgN/A
4:20 am59 °FPassing clouds.3 mph100%29.83 "HgN/A
Weather by CustomWeather, © 2017

See weather overviewHow to use our weather pages